Regional Weather Roundup
Issued by NWS Charleston, SC

Current Version | Previous Version | Graphics & Text | Print | Product List | Glossary On
Versions: 1 2 3 4 5 6 7 8 9 10 11 12 13 14 15 16 17 18 19 20 21 22 23 24 25 26 27 28 29 30 31 32 33 34 35 36 37 38 39 40 41 42 43 44 45 46 47 48 49 50
000
ASUS42 KCHS 052328
RWRCHS

REGIONAL WEATHER ROUNDUP
NATIONAL WEATHER SERVICE CHARLESTON SC
700 PM EDT THU MAY 05 2016

NOTE: "FAIR" INDICATES FEW OR NO CLOUDS BELOW 12,000 FEET WITH NO
SIGNIFICANT WEATHER AND/OR OBSTRUCTIONS TO VISIBILITY.

NOT ALL STATIONS ARE QUALITY CONTROLLED. USE DATA WITH CAUTION...
ESPECIALLY DEWPOINT OBSERVATIONS.

SCZ027-030-031-034>040-042>050-060000-
...SOUTHEAST SOUTH CAROLINA...

CITY           SKY/WX    TMP DP  RH WIND       PRES   REMARKS
N CHARLESTON   MOSUNNY   67  41  38 NW16      29.66R
WATERFRONT PRK   N/A     68  45  43 NW12      29.63R
MOUNT PLEASANT FAIR      66  39  37 W10G18    29.66R
JOHNS ISLAND   FAIR      66  43  42 NW7G14    29.67R
PINOPOLIS        N/A     70  45  40 W20       29.56S
MONCKS CORNER  FAIR      61  34  36 NW6       29.67R
SUMMERVILLE    MOCLDY    63  43  48 W15G24    29.70R
BEAUFORT MCAS  PTSUNNY   68  39  34 NW10G21   29.68R
BEAUFORT ARPT  FAIR      70  36  28 W18       29.68R
HILTON HEAD IS MOSUNNY   70  39  32 W9G20     29.69R
WALTERBORO     MOCLDY    63  41  45 NW9G17    29.70R
ALLENDALE      LGT RAIN  59  45  58 N10G17    29.72R

...SOUTHERN MIDLANDS AND PEE DEE...

CITY           SKY/WX    TMP DP  RH WIND       PRES   REMARKS
GEORGETOWN     MOCLDY    59  45  58 NW14G22   29.67R
KINGSTREE      FAIR      57  45  62 CALM      29.66R
ORANGEBURG     MOSUNNY   61  40  45 W9        29.68R
BARNWELL       FAIR      63  45  51 W10G17    29.72R
AIKEN          MOCLDY    57  41  54 W10G21    29.74R
MANNING        FAIR      61  37  41 NW9G16    29.66R
COLUMBIA       MOSUNNY   65  39  38 W20G26    29.66R
SUMTER         MOSUNNY   61  45  55 W5        29.63S
FLORENCE       CLOUDY    58  49  72 SW6       29.64F
MYRTLE BEACH   PTSUNNY   63  43  48 NW14      29.65R
N MYRTLE BEACH MOSUNNY   60  51  72 NW6       29.63R

$$

GAZ063-065-086>088-099>101-113>116-118-119-134>141-150-060000-
...SOUTHEAST GEORGIA...

CITY           SKY/WX    TMP DP  RH WIND       PRES   REMARKS
SAVANNAH ARPT  MOSUNNY   68  35  29 NW13G21   29.70R
HUNTER AAF     SUNNY     69  37  31 NW16G24   29.68R
FORT STEWART   SUNNY     69  35  28 W15G24    29.69R
STATESBORO     PTSUNNY   68  43  39 NW12G22   29.72R
SYLVANIA       PTCLDY    65  43  44 N21       29.73R
CLAXTON        FAIR      69  42  37 W17G26    29.72R

...CSRA...CENTRAL AND FAR SOUTHEAST GEORGIA...

CITY           SKY/WX    TMP DP  RH WIND       PRES   REMARKS
THOMSON        PTSUNNY   56  49  78 W6G17     29.78S
AUGUSTA-BUSH   CLOUDY    58  41  53 W16G28    29.72R
AUGUSTA-DANIEL CLOUDY    59  39  47 W12G23    29.73R
SWAINSBORO     MOCLDY    54  46  76 N6        29.76R
VIDALIA        MOSUNNY   68  37  32 W14       29.73S
EASTMAN        FAIR      68  39  33 NW7       29.77R
HAZLEHURST     FAIR      69  38  31 W8        29.73F
ALMA           MOSUNNY   69  38  32 NW16      29.74R
WAYCROSS       PTSUNNY   69  40  34 NW15G21   29.74S
JESUP          FAIR      72  41  33 NW12      29.74R
BAXLEY         FAIR      70  36  28 W12       29.74S
BRUNSWICK      PTSUNNY   75  39  27 NW10G16   29.75R
SAINT SIMONS   MOSUNNY   70  36  28 NW13G25   29.72R

$$

SCZ027-028-034-036>038-045-046-048>050-GAZ119-141-060000-
...LAKE AND SUPPLEMENTAL COASTAL OBSERVATIONS...

STATION/POSITION TIME  TEMP    WIND        PRES    WAVE   SWELL
                       AIR SEA DIR/SP/G            HT/PER HT/PER/DIR
                 (UTC) (F)     (DEG/KT/KT) (MB)    (FT/S) (FT/S/D)
WINYAH BAY       2245   62     350/ 11     1003.0R
LAKE MURRAY      2200   63     290/  7/ 11 1004.1R
ACE BASIN NERRS  2200   70     300/  5     1004.0S
FORT PULASKI     2300      72              1005.7R
SAPELO ISLAND    2300   70     300/ 17     1006.0S

$$

ANZ835-935-AMZ111-154-330-350-352-354-370-450-454-472-060000-
...C-MAN AND BUOY OBSERVATIONS...

STATION/POSITION TIME  TEMP    WIND        PRES    WAVE   SWELL
                       AIR SEA DIR/SP/G            HT/PER HT/PER/DIR
                 (UTC) (F)     (DEG/KT/KT) (MB)    (FT/S) (FT/S/D)
BUOY 41004       2250   69 74  290/ 21/ 25 1002.6R   5/ 6
BUOY 41008       NOT AVBL
FOLLY BEACH CMAN 2300   66     300/ 11/ 17 1004.5R
CAPERS NEARSHORE 2208   67 70  320/ 17/ 25 1002.7R
FRIPP NEARSHORE  2308   68 69  300/ 19/ 27 1003.9R


STATION/POSITION TIME  TEMP    WIND        PRES    WAVE   SWELL
                       AIR SEA DIR/SP/G            HT/PER HT/PER/DIR
                 (UTC) (F)     (DEG/KT/KT) (MB)    (FT/S) (FT/S/D)
5E ST. MARYS GA  2221      71                N/A     3/ 4
FRYING PAN BUOY  2300   64 72  310/ 21/ 25 1002.3R
BUOY 41025       2250   57 76  360/ 19/ 23  999.5R   5/ 7   2/ 40/13
CAPE LOOKOUT NC  2300   59     350/ 16/ 18 1000.2R
BUOY 41002       2250   72 74  260/ 25/ 31 1001.5R   9/ 8   2/120/19
BUOY 41010       2220   73 78  280/ 16/ 19 1006.3S
ST AUGUSTINE FL  2300   74 71  300/ 10/ 12 1007.0R


$$




USA.gov is the U.S. government's official web portal to all federal, state and local government web resources and services.